Barksdale AFB, LA

5:26 PM CDT on April 28, 2017 (GMT -0500)
Barksdale Air Force Base

Weather History for KBAD - March, 2012

Change the Weather History Date:

Thursday, March 8, 2012

  Actual Average Record
Temperature  
Mean Temperature 62 °F -  
Max Temperature 77 °F 61 °F 83 °F (2009)
Min Temperature 47 °F 43 °F 35 °F (2008)
Degree Days  
Heating Degree Days 2    
Growing Degree Days 12 (Base 50)    
Moisture  
Dew Point 60 °F    
Average Humidity 87    
Maximum Humidity 98    
Minimum Humidity 65    
Precipitation  
Precipitation 1.11 in - - ()
Sea Level Pressure  
Sea Level Pressure 30.07 in    
Wind  
Wind Speed 14 mph (SE)    
Max Wind Speed 32 mph    
Max Gust Speed 39 mph    
Visibility 9 miles    
Events Rain , Thunderstorm    
Averages and records for this station are not official NWS values.
T = Trace of Precipitation, MM = Missing Value Source: NWS Daily Summary

Daily Weather History Graph

Daily Weather History Graph

Search for Another Location

Airport or City:

Trip Planner

Search our weather history database for the weather conditions in past years. The results will help you decide how hot, cold, wet, or windy it might be!

Date:

Astronomy

Mar. 08, 2012 Rise Set
Actual Time 6:33 AM CST 6:17 PM CST
Civil Twilight 6:08 AM CST 6:42 PM CST
Nautical Twilight 5:40 AM CST 7:10 PM CST
Astronomical Twilight 5:11 AM CST 7:39 PM CST
Moon 6:59 PM CST (3/8) 6:21 AM CST (3/8)
Length of Visible Light 12h 33m
Length of Day
11h 44m
Full, 100% of the Moon is Illuminated
Mar 8
Full
Mar 14
Last Quarter
Mar 22
New
Mar 30
First Quarter
Apr 6
Full

Hourly Weather History & Observations

Time (CST) Temp. Dew Point Humidity Pressure Visibility Wind Dir Wind Speed Gust Speed Precip Events Conditions
12:00 AM 68.0 °F 66.2 °F 94% 30.04 in 10.0 mi South 13.8 mph - N/A   Overcast
12:13 AM 68.0 °F 66.2 °F 94% 30.04 in 10.0 mi South 12.7 mph - N/A   Overcast
12:25 AM 68.0 °F 66.2 °F 94% 30.04 in 10.0 mi South 11.5 mph - N/A   Light Drizzle
12:28 AM 68.0 °F 66.2 °F 94% 30.04 in 10.0 mi South 13.8 mph - N/A   Overcast
12:55 AM 67.6 °F 66.9 °F 98% 30.05 in 10.0 mi South 12.7 mph - 0.00 in   Mostly Cloudy
1:13 AM 68.0 °F 66.2 °F 94% 30.05 in 10.0 mi South 16.1 mph - N/A   Mostly Cloudy
1:55 AM 67.8 °F 66.6 °F 96% 30.03 in 10.0 mi South 15.0 mph - N/A   Overcast
2:55 AM 68.5 °F 66.2 °F 92% 30.02 in 10.0 mi South 13.8 mph - N/A   Mostly Cloudy
3:23 AM 68.0 °F 66.2 °F 94% 30.02 in 10.0 mi SSW 12.7 mph - N/A   Overcast
3:35 AM 68.0 °F 66.2 °F 94% 30.02 in 10.0 mi South 12.7 mph - N/A   Overcast
3:55 AM 68.5 °F 66.2 °F 92% 30.01 in 10.0 mi South 13.8 mph - N/A   Mostly Cloudy
4:46 AM 68.0 °F 66.2 °F 94% 30.01 in 10.0 mi South 13.8 mph - N/A   Mostly Cloudy
4:52 AM 68.0 °F 66.2 °F 94% 30.02 in 10.0 mi South 12.7 mph - N/A   Mostly Cloudy
4:55 AM 68.0 °F 66.2 °F 94% 30.02 in 10.0 mi South 13.8 mph - N/A   Mostly Cloudy
5:02 AM 68.0 °F 66.2 °F 94% 30.02 in 10.0 mi South 13.8 mph - N/A   Mostly Cloudy
5:10 AM 68.0 °F 66.2 °F 94% 30.03 in 10.0 mi South 11.5 mph - N/A   Mostly Cloudy
5:55 AM 68.4 °F 66.6 °F 94% 30.04 in 10.0 mi South 12.7 mph - N/A   Overcast
6:33 AM 68.0 °F 66.2 °F 94% 30.04 in 10.0 mi South 11.5 mph - N/A   Overcast
6:55 AM 68.4 °F 66.9 °F 95% 30.05 in 10.0 mi South 10.4 mph - N/A   Overcast
7:55 AM 68.7 °F 67.6 °F 96% 30.07 in 10.0 mi South 4.6 mph - N/A   Overcast
8:55 AM 69.6 °F 67.8 °F 94% 30.07 in 10.0 mi South 6.9 mph - N/A   Overcast
9:19 AM 71.6 °F 66.2 °F 83% 30.06 in 10.0 mi South 10.4 mph - N/A   Overcast
9:55 AM 72.7 °F 66.4 °F 81% 30.06 in 10.0 mi SSW 11.5 mph - N/A   Overcast
10:55 AM 73.6 °F 65.8 °F 77% 30.07 in 10.0 mi SSW 13.8 mph - N/A   Overcast
11:23 AM 73.4 °F 66.2 °F 78% 30.08 in 10.0 mi SSW 6.9 mph - N/A Rain Light Rain Showers
11:35 AM 73.4 °F 66.2 °F 78% 30.08 in 10.0 mi SSW 10.4 mph - N/A   Overcast
11:53 AM 73.4 °F 66.2 °F 78% 30.07 in 10.0 mi SSW 9.2 mph - N/A   Light Drizzle
11:55 AM 73.8 °F 65.7 °F 76% 30.07 in 10.0 mi SSW 8.1 mph - 0.00 in Rain Light Rain Showers
12:43 PM 73.4 °F 66.2 °F 78% 30.05 in 10.0 mi SSW 13.8 mph - N/A   Overcast
12:56 PM 75.2 °F 66.2 °F 73% 30.04 in 10.0 mi SSW 12.7 mph - N/A   Mostly Cloudy
1:30 PM 75.2 °F 66.2 °F 73% 30.04 in 10.0 mi SW 13.8 mph - N/A   Mostly Cloudy
1:38 PM 75.2 °F 64.4 °F 69% 30.03 in 10.0 mi SW 11.5 mph 17.3 mph N/A Rain Light Rain Showers
1:50 PM 75.2 °F 66.2 °F 73% 30.03 in 10.0 mi SW 12.7 mph - N/A   Overcast
1:55 PM 75.0 °F 65.1 °F 71% 30.03 in 10.0 mi SW 15.0 mph - 0.00 in   Overcast
2:29 PM 75.2 °F 64.4 °F 69% 30.01 in 10.0 mi SSW 13.8 mph - N/A   Overcast
2:41 PM 77.0 °F 64.4 °F 65% 30.01 in 10.0 mi SSW 10.4 mph - N/A   Overcast
2:55 PM 75.6 °F 65.3 °F 70% 30.01 in 10.0 mi SSW 15.0 mph - N/A   Overcast
3:55 PM 74.8 °F 65.7 °F 73% 29.99 in 10.0 mi South 13.8 mph - N/A   Overcast
4:55 PM 73.2 °F 66.4 °F 79% 29.99 in 10.0 mi SSW 9.2 mph - N/A   Overcast
5:21 PM 73.4 °F 66.2 °F 78% 29.99 in 10.0 mi South 10.4 mph - N/A   Drizzle
5:38 PM 71.6 °F 68.0 °F 88% 29.99 in 10.0 mi SSE 4.6 mph - N/A   Light Drizzle
5:55 PM 70.9 °F 67.8 °F 90% 30.00 in 10.0 mi Calm Calm - 0.01 in Rain Light Rain
6:09 PM 69.8 °F 68.0 °F 94% 30.01 in 10.0 mi NNE 6.9 mph - N/A Rain , Thunderstorm Light Thunderstorms and Rain
6:17 PM 69.8 °F 68.0 °F 94% 30.01 in 9.0 mi NNE 24.2 mph 34.5 mph N/A Rain , Thunderstorm Light Thunderstorms and Rain
6:24 PM 62.6 °F 59.0 °F 88% 30.02 in 7.0 mi NE 24.2 mph 34.5 mph N/A Rain , Thunderstorm Thunderstorms and Rain
6:26 PM 60.8 °F 57.2 °F 88% 30.03 in 7.0 mi NE 25.3 mph 34.5 mph N/A Rain , Thunderstorm Light Thunderstorms and Rain
6:29 PM 59.0 °F 55.4 °F 88% 30.03 in 10.0 mi NE 23.0 mph 32.2 mph N/A Rain , Thunderstorm Light Thunderstorms and Rain
6:37 PM 57.2 °F 53.6 °F 88% 30.05 in 10.0 mi ENE 21.9 mph 39.1 mph N/A   Overcast
6:43 PM 55.4 °F 51.8 °F 88% 30.03 in 10.0 mi ENE 32.2 mph 39.1 mph N/A Thunderstorm Thunderstorm
6:55 PM 55.2 °F 51.4 °F 87% 30.06 in 10.0 mi ENE 25.3 mph 35.7 mph 0.03 in   Overcast
7:01 PM 55.4 °F 50.0 °F 82% 30.07 in 10.0 mi ENE 31.1 mph 39.1 mph N/A   Light Drizzle
7:27 PM 53.6 °F 50.0 °F 88% 30.12 in 5.0 mi NE 17.3 mph 29.9 mph N/A Rain Heavy Rain
7:30 PM 53.6 °F 50.0 °F 88% 30.10 in 3.0 mi ENE 19.6 mph 29.9 mph N/A Rain Heavy Rain
7:31 PM 53.6 °F 50.0 °F 88% 30.10 in 3.0 mi ENE 19.6 mph 29.9 mph N/A Rain Heavy Rain
7:33 PM 53.6 °F 50.0 °F 88% 30.10 in 2.5 mi ENE 16.1 mph 29.9 mph N/A Rain Heavy Rain
7:36 PM 51.8 °F 50.0 °F 94% 30.10 in 3.0 mi ENE 15.0 mph 26.5 mph N/A Rain , Thunderstorm Heavy Thunderstorms and Rain
7:40 PM 51.8 °F 50.0 °F 94% 30.12 in 4.0 mi ENE 13.8 mph 26.5 mph N/A Rain , Thunderstorm Thunderstorms and Rain
7:55 PM 52.0 °F 50.4 °F 94% 30.14 in 5.0 mi ENE 9.2 mph - 0.32 in Rain , Thunderstorm Heavy Thunderstorms and Rain
8:05 PM 51.8 °F 50.0 °F 94% 30.14 in 3.0 mi ENE 24.2 mph 33.4 mph N/A Rain , Thunderstorm Thunderstorms and Rain
8:07 PM 51.8 °F 50.0 °F 94% 30.14 in 4.0 mi ENE 26.5 mph 36.8 mph N/A Rain , Thunderstorm Light Thunderstorms and Rain
8:11 PM 51.8 °F 50.0 °F 94% 30.14 in 5.0 mi ENE 26.5 mph 36.8 mph N/A Rain , Thunderstorm Thunderstorms and Rain
8:15 PM 51.8 °F 50.0 °F 94% 30.15 in 4.0 mi ENE 21.9 mph 36.8 mph N/A Rain , Thunderstorm Heavy Thunderstorms and Rain
8:17 PM 51.8 °F 50.0 °F 94% 30.16 in 3.0 mi ENE 24.2 mph 33.4 mph N/A Rain , Thunderstorm Heavy Thunderstorms and Rain
8:42 PM 51.8 °F 48.2 °F 88% 30.17 in 5.0 mi ENE 16.1 mph 26.5 mph N/A Rain , Thunderstorm Thunderstorms and Rain
8:55 PM 51.3 °F 48.7 °F 91% 30.15 in 8.0 mi ENE 17.3 mph 27.6 mph 0.46 in Rain , Thunderstorm Light Thunderstorms and Rain
9:19 PM 51.8 °F 48.2 °F 88% 30.22 in 10.0 mi NE 11.5 mph 18.4 mph N/A Rain , Thunderstorm Light Thunderstorms and Rain
9:46 PM 50.0 °F 48.2 °F 94% 30.24 in 10.0 mi ENE 13.8 mph 23.0 mph N/A Rain , Thunderstorm Thunderstorms and Rain
9:55 PM 50.5 °F 47.8 °F 90% 30.24 in 10.0 mi NNE 15.0 mph - 0.09 in Rain , Thunderstorm Thunderstorms and Rain
10:04 PM 50.0 °F 48.2 °F 94% 30.23 in 8.0 mi NE 15.0 mph 21.9 mph N/A Rain Heavy Rain
10:39 PM 50.0 °F 46.4 °F 87% 30.22 in 10.0 mi NE 17.3 mph 24.2 mph N/A   Overcast
10:55 PM 49.6 °F 46.9 °F 90% 30.25 in 10.0 mi NE 16.1 mph 23.0 mph 0.08 in Rain Light Rain
11:28 PM 48.2 °F 46.4 °F 93% 30.24 in 10.0 mi NNE 15.0 mph 27.6 mph N/A Rain , Thunderstorm Light Thunderstorms and Rain
11:55 PM 47.8 °F 45.3 °F 91% 30.23 in 10.0 mi NE 20.7 mph 26.5 mph 0.12 in Rain , Thunderstorm Rain